Location: Lombard
(41.8800°N, 88.0080°W)
Time: 20:47:14
(UTC-05:00)

PCSat - Visible Passes

Search period start: 18 May 2022 00:00
Search period end: 28 May 2022 00:00
Orbit: 784 x 795 km, 67.0° (Epoch: 18 May)

Date Brightness Start Highest point End Pass type
(mag) Time Alt. Az. Time Alt. Az. Time Alt. Az.
18 May 12.1 03:14:30 10° N 03:18:46 23° NE 03:22:59 10° E visible
18 May 9.6 04:57:12 10° NW 05:02:35 63° WSW 05:07:54 10° SSE visible
18 May 12.8 21:25:26 10° WNW 21:28:20 14° NW 21:31:16 10° N visible
19 May 12.4 02:43:45 10° N 02:47:24 18° NE 02:51:01 10° E visible
19 May 9.6 04:26:02 10° NNW 04:31:30 86° WSW 04:36:54 10° SSE visible
19 May 12.6 20:53:14 10° W 20:56:56 18° NW 21:00:39 10° N visible
20 May 12.6 02:13:09 10° N 02:15:59 14° NE 02:18:48 10° ENE visible
20 May 9.9 03:54:56 10° NNW 04:00:23 70° ENE 04:05:46 10° SE visible
21 May 12.7 01:42:57 10° NNE 01:44:30 11° NE 01:46:04 10° NE visible
21 May 10.4 03:23:53 10° NNW 03:29:13 52° NE 03:34:28 10° SE visible
22 May 11.0 02:52:54 10° NNW 02:57:59 39° NE 03:03:02 10° ESE visible
22 May 10.3 04:36:30 10° NW 04:41:14 32° WSW 04:45:57 10° S visible
23 May 11.4 02:21:58 10° NNW 02:26:43 30° NE 02:31:26 10° ESE visible
23 May 9.9 04:05:07 10° NW 04:10:15 44° WSW 04:15:20 10° S visible
24 May 11.8 01:51:07 10° N 01:55:24 23° NE 01:59:40 10° E visible
24 May 9.5 03:33:51 10° NW 03:39:12 61° WSW 03:44:31 10° SSE visible
25 May 12.1 01:20:20 10° N 01:24:02 18° NE 01:27:43 10° E visible
25 May 9.5 03:02:40 10° NNW 03:08:07 84° WSW 03:13:32 10° SSE visible
25 May 11.4 04:49:24 10° W 04:50:36 11° WSW 04:51:47 10° WSW visible
26 May 12.2 00:49:43 10° N 00:52:37 14° NE 00:55:30 10° ENE visible
26 May 9.7 02:31:33 10° NNW 02:37:00 72° ENE 02:41:11 17° SE visible
26 May 11.1 04:16:33 10° WNW 04:19:43 16° WSW 04:21:45 13° SW visible
27 May 12.4 00:19:28 10° NNE 00:21:09 11° NE 00:22:50 10° NE visible
27 May 10.2 02:00:30 10° NNW 02:05:49 53° NE 02:09:23 20° SE visible
27 May 10.7 03:44:42 10° WNW 03:48:48 22° WSW 03:49:59 21° SW visible
